Welcome to mirrors.dotsrc.org

All our mirrors of open source software are available via http, https, ftp and an onion service. More information about our mirrors including statistics and contact information is available on our mirror info pages.

For information about dotsrc.org and our other services please go to our website.

Index of /pub/mirrors/kiwix/zim/videos/

File Name  ↓ File Size  ↓ Date  ↓ 
Parent directory/--
universcience-tv_fr_all_2024-07.zim27.3 GiB2024-07-24 19:14:24
canadian_prepper_winterprepping_en_2024-07.zim1.2 GiB2024-07-23 02:44:17
premiers_pas_avec_python_fr_2024-07.zim18.5 MiB2024-07-21 19:52:25
avanti-thermodynamics_2024-07.zim287.3 MiB2024-07-21 19:27:18
canadian_prepper_preppingfood_en_2024-07.zim1.7 GiB2024-07-20 20:55:21
avanti-biomolecules_2024-07.zim219.9 MiB2024-07-19 11:01:43
avanti-sets-functions_2024-07.zim186.2 MiB2024-07-19 10:58:41
avanti-thermal-properties_2024-07.zim160.2 MiB2024-07-19 10:53:11
avanti-rotation_2024-07.zim326.6 MiB2024-07-19 10:43:23
avanti-properties-of-fluids_2024-07.zim187.7 MiB2024-07-19 10:37:14
avanti-vectors-and-calculus_2024-07.zim232.7 MiB2024-07-19 10:31:09
oer4schools_en_all_2024-07.zim1.2 GiB2024-07-19 10:13:04
avanti-properties-of-solids_2024-07.zim45.0 MiB2024-07-18 22:52:20
madrasa_magnets_ar_all_2024-07.zim19.9 MiB2024-07-18 13:03:16
avanti-periodic-properties_2024-07.zim92.9 MiB2024-07-18 12:51:23
avanti-continuity_2024-07.zim111.2 MiB2024-07-18 12:50:58
avanti-permutations_2024-07.zim249.2 MiB2024-07-18 12:47:08
avanti-inverse-trigonometry_2024-07.zim96.9 MiB2024-07-18 12:46:58
avanti-magnetic-effect_2024-07.zim112.9 MiB2024-07-18 12:42:10
madrasa_ar_math_2024-07.zim3.3 GiB2024-07-18 10:01:44
avanti-concepts-of-chemistry_2024-07.zim209.6 MiB2024-07-18 08:52:25
cest-pas-sorcier_fr_all_2024-07.zim28.8 GiB2024-07-18 08:35:29
avanti-mathematical-induction_2024-07.zim4.9 MiB2024-07-18 03:30:34
ubongo_sw_2024-07.zim12.0 GiB2024-07-16 03:01:57
urban-prepper_en_all_2024-07.zim1.8 GiB2024-07-14 15:27:51
wikimooc_fr_all_2024-07.zim245.1 MiB2024-07-14 09:47:49
mooc-energie-climat_fr_all_2024-07.zim261.8 MiB2024-07-14 05:12:38
project-fuel_en_2024-07.zim179.1 MiB2024-07-14 04:47:29
scienceinthebath_en_2024-07.zim431.0 MiB2024-07-14 04:01:01
mondial-tissus_fr_all_2024-07.zim1.7 GiB2024-07-14 03:27:55
ubongo_fr_all_2024-07.zim2.3 GiB2024-07-14 02:32:33
micmaths_fr_all_2024-07.zim2.5 GiB2024-07-13 18:37:35
mali-pour-les-nuls_fr_all_2024-07.zim58.5 MiB2024-07-13 16:50:22
madrasa_ar_stories_2024-07.zim578.8 MiB2024-07-13 16:15:49
madrasa_ar_poetry_2024-07.zim187.3 MiB2024-07-13 12:32:11
madrasa_ar_physics_2024-07.zim805.4 MiB2024-07-13 10:26:51
madrasa_ar_gasinteraction_2024-07.zim149.4 MiB2024-07-13 01:11:51
madrasa_ar_futureencyclopedia_2024-07.zim149.4 MiB2024-07-13 01:07:17
madrasa_ar_chemistry_2024-07.zim149.4 MiB2024-07-13 00:57:48
keylearning_en_2024-07.zim168.9 MiB2024-07-12 23:39:22
hygiene-mentale_fr_all_2024-07.zim1.2 GiB2024-07-12 22:20:56
dse_ladakh_lbj_2024-07.zim5.9 GiB2024-07-12 10:58:22
voa_learning_en_all_2024-07.zim11.8 GiB2024-07-10 03:33:53
dirtybiology_fr_all_2024-07.zim2.9 GiB2024-07-09 16:58:47
deus-ex-silicium_fr_all_2024-07.zim2.8 GiB2024-07-08 19:17:38
voa_am_all_2024-07.zim152.3 MiB2024-07-08 16:59:31
voa_vi_all_2024-07.zim299.0 MiB2024-07-08 16:56:54
e-penser_fr_all_2024-07.zim3.9 GiB2024-07-08 16:46:51
voa_uzb_all_2024-07.zim334.0 MiB2024-07-07 21:18:24
voa_ln_all_2024-07.zim228.1 MiB2024-07-07 21:13:07
voa_ko_all_2024-07.zim325.8 MiB2024-07-07 20:29:30
voa_fr_all_2024-07.zim267.7 MiB2024-07-07 20:21:45
voa_bm_all_2024-07.zim307.1 MiB2024-07-07 20:17:52
nota-bene_fr_all_2024-07.zim17.2 GiB2024-07-05 18:09:15
madrasa_ar_biology_2024-07.zim3.2 GiB2024-07-05 02:15:54
biologie-tout-compris_fr_all_2024-07.zim3.7 GiB2024-07-04 06:25:08
canadian_prepper_bugoutroll_en_2024-07.zim919.2 MiB2024-07-03 08:15:23
madrasa_ar_astronomy_2024-07.zim159.1 MiB2024-07-02 14:22:49
avanti-work-power-energy_2024-07.zim100.2 MiB2024-07-02 11:02:19
avanti-states-of-matter_2024-07.zim210.3 MiB2024-07-02 10:01:36
avanti-ionic-equilibrium_2024-07.zim177.7 MiB2024-07-02 08:26:22
avanti-semiconductor-electronics_2024-07.zim132.5 MiB2024-07-02 08:24:32
avanti-hydrocarbons_2024-07.zim319.1 MiB2024-07-02 08:07:21
avanti-indefinite-integration_2024-07.zim124.8 MiB2024-07-02 06:52:50
avanti-functions2_2024-07.zim165.9 MiB2024-07-02 06:17:39
avanti-sequence-series_2024-07.zim218.0 MiB2024-07-02 05:21:44
avanti-electrostatic_2024-07.zim207.1 MiB2024-07-02 04:42:47
avanti-redox-reactions_2024-07.zim144.7 MiB2024-07-02 04:15:11
madrasa_ar_scientists_2024-07.zim149.9 MiB2024-07-02 04:08:26
avanti-definite-integration_2024-07.zim175.2 MiB2024-07-02 03:29:49
madrasa_ar_arabic_2024-07.zim369.2 MiB2024-07-02 03:15:24
avanti-differential-equations_2024-07.zim96.5 MiB2024-07-02 03:07:29
avanti-coordination-compounds_2024-07.zim145.5 MiB2024-07-02 02:43:43
avanti-current-electricity_2024-07.zim165.4 MiB2024-07-02 02:25:39
avanti-complex-numbers_2024-07.zim225.7 MiB2024-07-02 01:46:24
avanti-conics2_2024-07.zim149.5 MiB2024-07-02 01:13:56
astrolabe_fr_all_2024-07.zim2.7 GiB2024-07-02 01:01:22
avanti-conics1_2024-07.zim189.9 MiB2024-07-02 00:59:10
avanti-binomial-theorem_2024-07.zim151.9 MiB2024-07-01 23:29:42
avanti-waves_2024-07.zim145.9 MiB2024-07-01 22:23:51
avanti-amines_2024-07.zim132.0 MiB2024-07-01 22:09:14
avanti-goc_2024-07.zim386.5 MiB2024-07-01 20:06:48
avanti-fundamentals-of-mathematics_2024-07.zim159.2 MiB2024-07-01 19:00:53
avanti-chemical-bonding_2024-07.zim312.0 MiB2024-07-01 18:54:48
avanti-dynamics-of-motion_2024-07.zim187.1 MiB2024-07-01 18:29:18
avanti-alcohol-phenol-ether_2024-07.zim131.0 MiB2024-07-01 17:24:47
avanti-alkyhalide_2024-07.zim171.3 MiB2024-07-01 17:13:45
avanti-carborylic-acid_2024-07.zim84.4 MiB2024-07-01 16:35:11
avanti-environmental-chemistry_2024-06.zim63.6 MiB2024-06-27 17:59:49
avanti-limit_2024-06.zim60.9 MiB2024-06-27 17:41:08
avanti-statistics_2024-06.zim60.6 MiB2024-06-27 16:59:03
avanti-electromagnetic-waves_2024-06.zim33.9 MiB2024-06-27 16:55:11
avanti-df-blocks-elements_2024-06.zim62.7 MiB2024-06-27 16:49:06
avanti-hydrogen_2024-06.zim42.7 MiB2024-06-27 16:32:14
avanti-mathematical-reasoning_2024-06.zim72.4 MiB2024-06-27 16:15:09
tutorial-wikipedia_id_2024-06.zim73.7 MiB2024-06-27 15:23:54
avanti-metallurgy_2024-06.zim67.4 MiB2024-06-27 15:05:57
avanti-capacitors_2024-06.zim77.4 MiB2024-06-27 14:39:20
avanti-solid-state_2024-06.zim68.1 MiB2024-06-27 14:19:02
avanti-3dimensional-geometry_2024-06.zim71.2 MiB2024-06-27 13:46:18
avanti-matrices-determinants_2024-06.zim79.4 MiB2024-06-27 13:17:17
avanti-p-blocks-elements2_2024-06.zim72.3 MiB2024-06-27 13:13:18
avanti-electrochemistry_2024-06.zim110.0 MiB2024-06-27 12:46:51
avanti-p-block-elements_2024-06.zim60.9 MiB2024-06-27 11:48:47
avanti-s-block-elements_2024-06.zim89.3 MiB2024-06-27 11:26:42
avanti-probability_2024-06.zim91.4 MiB2024-06-27 11:00:39
avanti-trigonometry_2024-06.zim123.8 MiB2024-06-27 10:58:10
avanti-vector-algebra_2024-06.zim89.2 MiB2024-06-27 10:14:33
avanti-wave-optics_2024-06.zim72.7 MiB2024-06-27 09:36:28
avanti-surface-chemistry_2024-06.zim111.4 MiB2024-06-27 09:08:17
avanti-electromagnetic-induction_2024-06.zim87.2 MiB2024-06-27 08:58:06
avanti-motion-in-two-dimensions_2024-06.zim153.0 MiB2024-06-27 08:15:53
avanti-solutions_2024-06.zim92.0 MiB2024-06-27 07:33:37
avanti-motion-in-straight-line_2024-06.zim103.4 MiB2024-06-27 07:19:22
avanti-inequalities_2024-06.zim128.9 MiB2024-06-27 06:50:51
avanti-modern-physics_2024-06.zim102.4 MiB2024-06-27 06:09:40
avanti-ray-optics_2024-06.zim116.3 MiB2024-06-27 05:38:14
avanti-ac-circuits_2024-06.zim172.0 MiB2024-06-27 04:06:12
avanti-magnetism-matter_2024-06.zim51.2 MiB2024-06-27 02:18:34
avanti-units-and-measurements_2024-06.zim101.0 MiB2024-06-27 01:38:27
avanti-atomic-structure_2024-06.zim228.3 MiB2024-06-26 22:42:01
avanti-chemical-equilibrium_2024-06.zim131.4 MiB2024-06-26 19:51:53
avanti-chemical-kinetics_2024-06.zim165.2 MiB2024-06-26 16:07:33
avanti-oscillations_2024-06.zim85.1 MiB2024-06-26 14:14:29
avanti-quadratic-equations_2024-06.zim184.2 MiB2024-06-26 12:57:49
avanti-carbonyl-compounds_2024-06.zim119.7 MiB2024-06-26 10:55:26
avanti-gravitation_2024-06.zim137.5 MiB2024-06-26 09:12:50
slam-out-loud_hi_2024-06.zim77.6 MiB2024-06-26 06:47:39
ubongo_sw_2024-06.zim13.2 GiB2024-06-26 05:27:20
e-penser_fr_all_2024-06.zim2.9 GiB2024-06-24 22:49:34
voa_learning_en_all_2024-06.zim16.5 GiB2024-06-24 00:33:17
nota-bene_fr_all_2024-06.zim21.4 GiB2024-06-14 11:58:52
urban-prepper_en_all_2024-05.zim5.5 GiB2024-05-07 23:54:09
project-fuel_en_2024-04.zim784.6 MiB2024-04-29 15:05:30
mooc-energie-climat_fr_all_2024-04.zim1.0 GiB2024-04-26 14:06:21
madrasa_ar_scientists_2024-04.zim655.0 MiB2024-04-23 19:26:37
madrasa_ar_math_2024-04.zim22.3 GiB2024-04-23 02:08:27
madrasa_ar_arabic_2024-04.zim1.6 GiB2024-04-22 23:39:26
madrasa_ar_songs_2024-04.zim379.5 MiB2024-04-22 23:26:48
madrasa_ar_poetry_2024-04.zim911.5 MiB2024-04-22 13:02:02
madrasa_ar_stories_2024-04.zim1.9 GiB2024-04-22 12:55:07
dirtybiology_fr_all_2024-04.zim11.9 GiB2024-04-16 23:50:32
deus-ex-silicium_fr_all_2024-04.zim6.7 GiB2024-04-16 23:49:43
astrolabe_fr_all_2024-04.zim6.3 GiB2024-04-12 23:47:05
tutorial-wikipedia_id_2024-03.zim389.8 MiB2024-03-19 06:11:21
slam-out-loud_hi_2024-03.zim300.6 MiB2024-03-19 06:09:31
scienceinthebath_en_2024-03.zim1.2 GiB2024-03-19 06:07:58
keylearning_en_2024-03.zim780.7 MiB2024-03-19 06:06:26
dse_ladakh_lbj_2024-03.zim24.8 GiB2024-03-18 11:55:06
canadian_prepper_winterprepping_en_2024-03.zim3.3 GiB2024-03-13 14:21:08
canadian_prepper_preppingfood_en_2024-03.zim4.9 GiB2024-03-13 13:53:59
canadian_prepper_bugoutconcepts_en_2024-03.zim7.8 GiB2024-03-13 12:31:47
canadian_prepper_bugoutroll_en_2024-03.zim2.5 GiB2024-03-13 00:11:01
madrasa_ar_biology_2024-03.zim19.2 GiB2024-03-11 21:26:10
madrasa_magnets_ar_all_2024-03.zim117.3 MiB2024-03-11 20:53:52
madrasa_ar_electeng_2024-03.zim2.2 GiB2024-03-11 20:50:07
madrasa_ar_physics_2024-03.zim5.4 GiB2024-03-11 20:36:43
madrasa_ar_chemistry_2024-03.zim590.4 MiB2024-03-11 20:11:43
madrasa_ar_gasinteraction_2024-03.zim590.4 MiB2024-03-11 20:07:06
madrasa_ar_futureencyclopedia_2024-03.zim590.4 MiB2024-03-11 20:02:53
cest-pas-sorcier_fr_all_2024-03.zim77.0 GiB2024-03-08 07:46:26
hygiene-mentale_fr_all_2024-03.zim5.0 GiB2024-03-08 05:58:45
biologie-tout-compris_fr_all_2024-03.zim14.3 GiB2024-03-08 05:42:56
oer4schools_en_all_2024-03.zim3.7 GiB2024-03-07 13:24:50
avanti-electromagnetic-waves_2024-03.zim128.5 MiB2024-03-07 13:06:44
avanti-limit_2024-03.zim187.0 MiB2024-03-06 03:08:14
avanti-principles-mathematical-induction_2024-03.zim146.4 MiB2024-03-06 03:03:29
avanti-df-blocks-elements_2024-03.zim202.1 MiB2024-03-06 02:55:48
avanti-mechanical-properties-of-solids_2024-03.zim155.5 MiB2024-03-06 02:52:55
avanti-mathematical-reasoning_2024-03.zim262.9 MiB2024-03-06 02:51:32
avanti-capacitors_2024-03.zim257.3 MiB2024-03-06 02:48:51
avanti-periodic-properties_2024-03.zim266.4 MiB2024-03-06 02:47:06
avanti-p-blocks-elements2_2024-03.zim227.4 MiB2024-03-06 02:44:06
avanti-metallurgy_2024-03.zim206.3 MiB2024-03-06 02:42:11
avanti-p-block-elements_2024-03.zim196.2 MiB2024-03-06 02:39:30
avanti-solid-state_2024-03.zim261.2 MiB2024-03-06 02:37:40
avanti-3dimensional-geometry_2024-03.zim267.8 MiB2024-03-06 02:35:05
avanti-electrochemistry_2024-03.zim340.5 MiB2024-03-06 02:33:41
avanti-vector-algebra_2024-03.zim343.3 MiB2024-03-06 02:30:57
avanti-trigonometry_2024-03.zim447.1 MiB2024-03-06 02:28:54
avanti-s-block-elements_2024-03.zim223.4 MiB2024-03-06 02:26:12
avanti-matrices-determinants_2024-03.zim319.0 MiB2024-03-06 02:24:17
avanti-electromagnetic-induction_2024-03.zim289.5 MiB2024-03-06 02:22:03
avanti-surface-chemistry_2024-03.zim406.5 MiB2024-03-06 02:19:55
avanti-inequalities_2024-03.zim366.1 MiB2024-03-06 02:17:40
avanti-differential-equations_2024-03.zim306.6 MiB2024-03-06 02:16:43
avanti-chemical-kinetics_2024-03.zim531.4 MiB2024-03-06 02:13:30
avanti-atomic-structure_2024-03.zim654.9 MiB2024-03-06 02:11:30
avanti-inverse-trigonometry_2024-03.zim335.1 MiB2024-03-06 02:07:57
avanti-wave-optics_2024-03.zim237.3 MiB2024-03-06 02:03:05
avanti-redox-reactions_2024-03.zim486.6 MiB2024-03-06 01:59:14
avanti-motion-in-two-dimensions_2024-03.zim447.1 MiB2024-03-06 01:47:50
avanti-modern-physics_2024-03.zim384.8 MiB2024-03-06 01:42:52
avanti-continuity-differentiability_2024-03.zim394.0 MiB2024-03-06 01:38:27
avanti-motion-in-straight-line_2024-03.zim380.9 MiB2024-03-06 01:34:56
avanti-oscillations_2024-03.zim301.7 MiB2024-03-06 01:34:03
avanti-gravitation_2024-03.zim467.9 MiB2024-03-06 01:30:37
avanti-binomial-theorem_2024-03.zim479.7 MiB2024-03-06 01:29:48
avanti-carbonyl-compounds_2024-03.zim407.4 MiB2024-03-06 01:27:03
avanti-conics2_2024-03.zim477.9 MiB2024-03-06 01:25:16
avanti-units-and-measurements_2024-03.zim360.2 MiB2024-03-06 01:20:53
avanti-sets-relations-functions_2024-03.zim623.0 MiB2024-03-06 01:20:51
avanti-chemical-equilibrium_2024-03.zim407.6 MiB2024-03-06 01:16:36
avanti-ac-circuits_2024-03.zim487.4 MiB2024-03-06 01:15:35
avanti-magnetic-effect-electric-current_2024-03.zim374.4 MiB2024-03-06 01:11:15
avanti-coordination-compounds_2024-03.zim529.7 MiB2024-03-06 01:08:09
avanti-work-power-energy_2024-03.zim371.3 MiB2024-03-06 01:00:35
avanti-sequence-series_2024-03.zim625.9 MiB2024-03-06 00:56:41
avanti-alkyhalide_2024-03.zim545.1 MiB2024-03-06 00:52:01
avanti-amines_2024-03.zim408.1 MiB2024-03-06 00:47:20
avanti-definite-integration_2024-03.zim578.4 MiB2024-03-06 00:43:15
avanti-current-electricity_2024-03.zim502.0 MiB2024-03-06 00:38:43
avanti-alcohol-phenol-ether_2024-03.zim436.3 MiB2024-03-06 00:34:24
avanti-states-of-matter_2024-03.zim662.5 MiB2024-03-06 00:30:22
avanti-fundamentals-of-mathematics_2024-03.zim574.0 MiB2024-03-06 00:25:08
avanti-mechanical-properties-of-fluids_2024-03.zim671.9 MiB2024-03-06 00:21:41
avanti-dynamics-of-motion_2024-03.zim630.8 MiB2024-03-06 00:20:34
avanti-complex-numbers_2024-03.zim744.9 MiB2024-03-06 00:14:11
avanti-ionic-equilibrium_2024-03.zim617.0 MiB2024-03-06 00:06:38
avanti-thermodynamics_2024-03.zim266.4 MiB2024-03-05 23:46:45
avanti-magnetism-matter_2024-03.zim167.0 MiB2024-03-05 23:44:35
avanti-waves_2024-03.zim526.4 MiB2024-03-05 23:41:59
avanti-biomolecules-everyday-life_2024-03.zim794.7 MiB2024-03-05 23:41:05
avanti-functions2_2024-03.zim637.5 MiB2024-03-05 23:36:39
avanti-conics1_2024-03.zim565.2 MiB2024-03-05 23:36:12
avanti-concepts-of-chemistry_2024-03.zim701.3 MiB2024-03-05 23:32:29
avanti-chemical-bonding_2024-03.zim935.4 MiB2024-03-05 23:30:19
avanti-electrostatic_2024-03.zim747.6 MiB2024-03-05 23:25:19
wikimooc_fr_all_2024-03.zim812.8 MiB2024-03-05 23:22:53
avanti-permutations-combinations_2024-03.zim873.7 MiB2024-03-05 23:17:40
avanti-goc_2024-03.zim1.2 GiB2024-03-05 23:16:48
avanti-hydrocarbons_2024-03.zim1.1 GiB2024-03-05 23:09:07
avanti-rotation_2024-03.zim1.0 GiB2024-03-05 22:29:01
avanti-vectors-and-calculus_2024-03.zim781.3 MiB2024-03-05 22:13:06
avanti-environmental-chemistry_2024-03.zim136.7 MiB2024-03-05 21:22:45
avanti-hydrogen_2024-03.zim137.0 MiB2024-03-05 21:19:51
avanti-statistics_2024-03.zim214.8 MiB2024-03-05 21:18:37
avanti-solutions_2024-03.zim326.7 MiB2024-03-05 21:15:48
avanti-ray-optics_2024-03.zim366.4 MiB2024-03-05 21:15:15
avanti-carborylic-acid_2024-03.zim308.1 MiB2024-03-05 21:11:25
avanti-quadratic-equations_2024-03.zim575.1 MiB2024-03-05 21:09:10
avanti-semiconductor-electronics_2024-03.zim386.2 MiB2024-03-05 21:06:15
avanti-thermal-properties-of-matter_2024-03.zim535.9 MiB2024-03-05 20:42:21
mondial-tissus_fr_all_2024-03.zim4.9 GiB2024-03-05 20:39:36
ubongo_fr_all_2024-03.zim7.2 GiB2024-03-05 20:38:06
micmaths_fr_all_2024-03.zim9.7 GiB2024-03-05 19:50:04
la_chaine_de_maths_et_tiques_fr_all_2024-03.zim51.1 GiB2024-03-05 18:52:52
avanti-indefinite-integration_2024-03.zim409.2 MiB2024-03-05 18:03:57
mali-pour-les-nuls_fr_all_2024-03.zim132.8 MiB2024-03-05 09:14:32
madrasa_physics_ar_all_2024-03.zim5.4 GiB2024-03-05 08:39:37
madrasa_ar_astronomy_2024-03.zim1.1 GiB2024-03-05 08:31:10
avanti-probability_2024-03.zim336.1 MiB2024-03-04 22:13:12
madrasa_gasinteraction_ar_all_2024-03.zim590.4 MiB2024-03-04 20:50:24
madrasa_electeng_ar_all_2024-03.zim2.2 GiB2024-03-04 20:48:50
jamy_fr_all_2024-03.zim7.6 GiB2024-03-04 09:00:29
universcience-tv_fr_all_2024-03.zim79.4 GiB2024-03-03 05:21:46
premiers_pas_avec_python_fr_2024-02.zim82.7 MiB2024-02-27 14:30:38
canadian_prepper_bugoutconcepts_en_2023-12.zim7.8 GiB2023-12-14 12:08:22
avanti-mechanical-properties-of-solids_2023-12.zim155.5 MiB2023-12-07 01:39:17
avanti-continuity-differentiability_2023-12.zim394.0 MiB2023-12-07 01:01:36
avanti-sets-relations-functions_2023-12.zim623.0 MiB2023-12-07 00:32:40
avanti-magnetic-effect-electric-current_2023-12.zim374.4 MiB2023-12-07 00:28:16
avanti-mechanical-properties-of-fluids_2023-12.zim672.0 MiB2023-12-06 23:06:36
avanti-biomolecules-everyday-life_2023-12.zim794.7 MiB2023-12-06 22:46:36
avanti-permutations-combinations_2023-12.zim873.7 MiB2023-12-06 22:31:57
avanti-thermal-properties-of-matter_2023-12.zim535.9 MiB2023-12-06 20:43:14
jamy_fr_all_2023-12.zim7.1 GiB2023-12-05 13:51:33
voa_learning_english-word-of-the-day_2023-11.zim59.5 MiB2023-11-12 06:44:35
voa_learning_english-how-to-pronounce_2023-11.zim2.2 GiB2023-11-12 06:43:27
voa_learning_english-let-s-learn-english-level-2_2023-11.zim2.2 GiB2023-11-12 06:30:30
voa_learning_english-everyday-grammar-tv_2023-11.zim6.6 GiB2023-11-12 06:17:31
voa_learning_english-news-literacy_2023-11.zim425.3 MiB2023-11-12 05:21:20
voa_learning_english-let-s-teach-english_2023-11.zim835.8 MiB2023-11-12 05:20:08
voa_learning_english-eim-english-in-a-minute_2023-11.zim1.8 GiB2023-11-12 05:18:17
voa_learning_english-let-s-learn-english_2023-11.zim12.7 GiB2023-11-12 05:13:40
voa_learning_english-word-of-the-day_2023-10.zim59.4 MiB2023-10-12 05:34:00
voa_learning_english-news-literacy_2023-10.zim425.3 MiB2023-10-12 05:33:30
voa_learning_english-let-s-learn-english-level-2_2023-10.zim2.2 GiB2023-10-12 05:31:57
voa_learning_english-let-s-teach-english_2023-10.zim835.8 MiB2023-10-12 05:27:13
voa_learning_english-everyday-grammar-tv_2023-10.zim6.6 GiB2023-10-12 05:21:04
voa_learning_english-eim-english-in-a-minute_2023-10.zim1.7 GiB2023-10-12 04:37:25
voa_learning_english-let-s-learn-english_2023-10.zim12.7 GiB2023-10-12 04:32:38
voa_learning_english-how-to-pronounce_2023-10.zim2.2 GiB2023-10-12 03:24:28
keylearning_en_art-express-yourself_2023-09.zim376.5 MiB2023-09-07 21:34:32
keylearning_en_resume-building-with-google-docs_2023-09.zim267.3 MiB2023-09-07 21:33:00
keylearning_en_basic-budgeting-with-excel_2023-09.zim164.0 MiB2023-09-07 21:31:56
scienceinthebath_en_freshest-produce_2023-09.zim117.0 MiB2023-09-07 21:25:51
scienceinthebath_en_adventures-wonders_2023-09.zim239.2 MiB2023-09-07 21:24:50
scienceinthebath_en_m-films_2023-09.zim176.0 MiB2023-09-07 21:23:50
scienceinthebath_en_assorted-nonsense_2023-09.zim35.2 MiB2023-09-07 21:22:44
scienceinthebath_en_science-in-the-bath_2023-09.zim535.3 MiB2023-09-07 21:21:50
scienceinthebath_en_climate-nature-environment_2023-09.zim388.0 MiB2023-09-07 21:18:55
ubongo_sw_playlist-darasa-la-hesabu_2023-09.zim569.6 MiB2023-09-06 19:22:17
ubongo_sw_playlist-ubongo-kids-music-videos_2023-09.zim1.1 GiB2023-09-06 19:17:59
ubongo_sw_playlist-ubongo-kids-united-nations_2023-09.zim49.8 MiB2023-09-06 19:16:39
ubongo_sw_playlist-ubongo-kids-eala-the-east-african-legislative-assembly_2023-09.zim89.1 MiB2023-09-06 19:15:37
ubongo_sw_playlist-party-with-ubongo_2023-09.zim435.5 MiB2023-09-06 19:14:41
ubongo_sw_playlist-imba-na-ubongo-kids_2023-09.zim2.6 GiB2023-09-06 19:13:31
ubongo_sw_playlist-video-mpya-za-ubongo-kids_2023-09.zim3.1 GiB2023-09-06 19:05:03
ubongo_sw_playlist-ubongo-kids-kwa-kiingereza-jifunze-kiingereza_2023-09.zim383.2 MiB2023-09-06 18:58:49
ubongo_sw_playlist-season-2-ubongo-kids_2023-09.zim1.4 GiB2023-09-06 18:58:10
ubongo_sw_playlist-ubongo-kids-promos_2023-09.zim653.3 MiB2023-09-06 18:54:29
ubongo_sw_playlist-ubongo-website-playlist_2023-09.zim37.2 MiB2023-09-06 18:53:18
ubongo_sw_playlist-marafiki-wa-mama-ndege_2023-09.zim1019.9 MiB2023-09-06 18:51:33
ubongo_sw_playlist-ubongo-impact-ubongo-kids-partners_2023-09.zim2.4 GiB2023-09-06 18:50:06
ubongo_sw_playlist-lugha-tofauti-tofauti_2023-09.zim2.2 GiB2023-09-06 18:44:09
ubongo_sw_playlist-ubongo-kids-amplify-ideo-org-collecting-caregivers-stories_2023-09.zim35.1 MiB2023-09-06 18:37:03
ubongo_sw_playlist-darasani-na-ubongo-kids_2023-09.zim1.8 GiB2023-09-06 18:36:23
ubongo_sw_playlist-nyimbo-za-namba_2023-09.zim861.5 MiB2023-09-06 18:27:12
ubongo_sw_playlist-ubongo-kids-the-goodall-foundation-cartoons-for-character-strengths_2023-09.zim1.3 GiB2023-09-06 18:26:34
ubongo_sw_playlist-misingi-ya-hisabati_2023-09.zim5.2 MiB2023-09-06 18:24:50
ubongo_sw_playlist-umuhimu-wa-elimu_2023-09.zim1.1 GiB2023-09-06 18:23:07
ubongo_sw_playlist-full-webisodes-ubongo-kids_2023-09.zim2.1 GiB2023-09-06 18:15:35
ubongo_sw_playlist-kiswahili-ubongo-kids-webisodes-hisabati-na-sayansi_2023-09.zim5.5 GiB2023-09-06 18:14:15
ubongo_sw_playlist-ubongo-kids-fan-favorites_2023-09.zim2.8 GiB2023-09-06 18:04:04
ubongo_sw_playlist-kuwa-ubongo-kid_2023-09.zim1.4 GiB2023-09-06 17:57:59
ubongo_sw_playlist-nyuma-ya-pazia_2023-09.zim504.1 MiB2023-09-06 17:56:38
ubongo_sw_playlist-compilations_2023-09.zim3.4 GiB2023-09-06 17:56:20
ubongo_sw_playlist-season-5-utu_2023-09.zim1.6 GiB2023-09-06 17:50:21
avanti-principles-mathematical-induction_2023-06.zim146.5 MiB2023-06-07 10:57:10
ubongo_sw_playlist-ubongo-kids-united-nations_2023-06.zim49.8 MiB2023-06-06 20:33:40
ubongo_sw_playlist-ubongo-kids-the-goodall-foundation-cartoons-for-character-strengths_2023-06.zim1.3 GiB2023-06-06 20:33:09
ubongo_sw_playlist-ubongo-kids-promos_2023-06.zim653.3 MiB2023-06-06 20:31:51
ubongo_sw_playlist-darasani-na-ubongo-kids_2023-06.zim1.8 GiB2023-06-06 20:30:23
ubongo_sw_playlist-nyimbo-za-namba_2023-06.zim861.5 MiB2023-06-06 20:18:52
ubongo_sw_playlist-ubongo-kids-amplify-ideo-org-collecting-caregivers-stories_2023-06.zim35.1 MiB2023-06-06 20:17:33
ubongo_sw_playlist-marafiki-wa-mama-ndege_2023-06.zim1019.9 MiB2023-06-06 20:16:51
ubongo_sw_playlist-season-5-utu_2023-06.zim1.6 GiB2023-06-06 20:16:25
ubongo_sw_playlist-party-with-ubongo_2023-06.zim435.5 MiB2023-06-06 20:14:46
ubongo_sw_playlist-kuwa-ubongo-kid_2023-06.zim1.4 GiB2023-06-06 20:14:07
ubongo_sw_playlist-kiswahili-ubongo-kids-webisodes-hisabati-na-sayansi_2023-06.zim5.5 GiB2023-06-06 20:12:37
ubongo_sw_playlist-ubongo-kids-kwa-kiingereza-jifunze-kiingereza_2023-06.zim383.2 MiB2023-06-06 20:06:33
ubongo_sw_playlist-full-webisodes-ubongo-kids_2023-06.zim2.1 GiB2023-06-06 19:58:21
ubongo_sw_playlist-darasa-la-hesabu_2023-06.zim569.6 MiB2023-06-06 19:54:34
ubongo_sw_playlist-imba-na-ubongo-kids_2023-06.zim2.6 GiB2023-06-06 19:51:32
ubongo_sw_playlist-video-mpya-za-ubongo-kids_2023-06.zim3.1 GiB2023-06-06 19:43:22
ubongo_sw_playlist-compilations_2023-06.zim3.4 GiB2023-06-06 19:38:05
ubongo_sw_playlist-season-2-ubongo-kids_2023-06.zim1.4 GiB2023-06-06 19:32:40
ubongo_sw_playlist-misingi-ya-hisabati_2023-06.zim1.3 GiB2023-06-06 19:30:47
ubongo_sw_playlist-ubongo-kids-fan-favorites_2023-06.zim2.8 GiB2023-06-06 19:29:12
ubongo_sw_playlist-ubongo-impact-ubongo-kids-partners_2023-06.zim2.4 GiB2023-06-06 19:24:18
ubongo_sw_playlist-umuhimu-wa-elimu_2023-06.zim1.1 GiB2023-06-06 19:19:40
ubongo_sw_playlist-lugha-tofauti-tofauti_2023-06.zim2.2 GiB2023-06-06 19:13:19
ubongo_sw_playlist-nyuma-ya-pazia_2023-06.zim504.1 MiB2023-06-06 19:07:01
ubongo_sw_playlist-ubongo-kids-eala-the-east-african-legislative-assembly_2023-06.zim89.1 MiB2023-06-06 19:05:55
ubongo_sw_playlist-ubongo-kids-music-videos_2023-06.zim1.1 GiB2023-06-06 19:05:24
ubongo_sw_playlist-ubongo-website-playlist_2023-06.zim37.2 MiB2023-06-06 19:02:53
la_chaine_de_maths_et_tiques_fr_all_2023-03.zim49.1 GiB2023-03-08 18:41:54
scienceinthebath_en_climate-nature-environment_2023-02.zim387.6 MiB2023-02-07 14:12:13
scienceinthebath_en_adventures-wonders_2023-02.zim239.2 MiB2023-02-07 14:10:09
scienceinthebath_en_science-in-the-bath_2023-02.zim535.3 MiB2023-02-07 14:08:12
scienceinthebath_en_assorted-nonsense_2023-02.zim35.2 MiB2023-02-07 14:05:57
scienceinthebath_en_freshest-produce_2023-02.zim117.0 MiB2023-02-07 14:03:57
scienceinthebath_en_m-films_2023-02.zim175.6 MiB2023-02-07 14:02:58
keylearning_en_basic-budgeting-with-excel_2023-01.zim164.1 MiB2023-01-11 22:46:16
keylearning_en_resume-building-with-google-docs_2023-01.zim267.3 MiB2023-01-11 22:45:18
keylearning_en_art-express-yourself_2023-01.zim376.5 MiB2023-01-11 22:44:34
avanti-iefinite-integration_2022-09.zim578.9 MiB2022-09-18 06:17:46
avanti-application-derivatives_2022-09.zim158.3 MiB2022-09-18 03:48:19
avanti-conics_2022-09.zim565.7 MiB2022-09-17 06:41:54
avanti-c14-hydrocarbons_2022-09.zim1.1 GiB2022-09-16 11:46:31
aimhi_en_english-website_2022-01.zim1.5 GiB2022-01-10 19:59:30
aimhi_en_what-is-cancer_2022-01.zim361.3 MiB2022-01-10 19:58:11
aimhi_en_hischool-physics_2022-01.zim691.0 MiB2022-01-10 19:57:34
aimhi_en_science-website_2022-01.zim5.7 GiB2022-01-10 19:55:00
aimhi_en_hischool-biology_2022-01.zim455.4 MiB2022-01-10 19:42:05
aimhi_en_philosophy-website_2022-01.zim1.5 GiB2022-01-10 19:41:30
aimhi_en_inspiring-guests_2022-01.zim1.3 GiB2022-01-10 19:39:14
aimhi_en_hilights-website_2022-01.zim1.2 GiB2022-01-10 19:37:15
aimhi_en_geography-website_2022-01.zim892.1 MiB2022-01-10 19:31:15
slam-out-loud_hi_diy-theatre-khud-se-siikho-thiettr_2021-12.zim146.2 MiB2021-12-23 11:48:57
slam-out-loud_hi_diy-visual-art-khud-se-siikho-citr-bnaao_2021-12.zim45.7 MiB2021-12-23 11:48:04
slam-out-loud_hi_diy-poetry-khud-se-siikho-kvitaa-likho_2021-12.zim71.7 MiB2021-12-23 11:46:56
slam-out-loud_hi_diy-storytelling-khud-se-siikho-khaanii-bnaao_2021-12.zim54.5 MiB2021-12-23 11:46:10
dse-ladak_hi_class-7th_2021-11.zim5.1 GiB2021-11-23 19:56:10
dse-ladak_hi_class-12th_2021-11.zim3.1 GiB2021-11-23 19:48:43
dse-ladak_hi_class-8th_2021-11.zim3.0 GiB2021-11-23 19:43:38
dse-ladak_hi_class-2nd_2021-11.zim736.1 MiB2021-11-23 19:37:58
dse-ladak_hi_class-5th_2021-11.zim870.2 MiB2021-11-23 19:36:10
dse-ladak_hi_class-1st_2021-11.zim494.2 MiB2021-11-23 19:33:41
dse-ladak_hi_class-10th_2021-11.zim791.4 MiB2021-11-23 19:32:00
dse-ladak_hi_class-6th_2021-11.zim3.7 GiB2021-11-23 19:30:34
dse-ladak_hi_class-4th_2021-11.zim426.9 MiB2021-11-23 19:22:45
dse-ladak_hi_class-9th_2021-11.zim4.6 GiB2021-11-23 19:20:51
dse-ladak_hi_class-3rd_2021-11.zim190.6 MiB2021-11-23 19:07:58
slam-out-loud_hi_diy-storytelling-khud-se-siikho-khaanii-bnaao_2021-09.zim54.7 MiB2021-09-24 07:06:36
slam-out-loud_hi_diy-theatre-khud-se-siikho-thiettr_2021-09.zim146.3 MiB2021-09-24 07:05:44
slam-out-loud_hi_diy-visual-art-khud-se-siikho-citr-bnaao_2021-09.zim45.8 MiB2021-09-24 07:04:52
slam-out-loud_hi_diy-poetry-khud-se-siikho-kvitaa-likho_2021-09.zim71.9 MiB2021-09-24 07:04:40
dse-ladak_hi_class-1st_2021-08.zim494.2 MiB2021-08-25 19:45:42
dse-ladak_hi_class-6th_2021-08.zim3.7 GiB2021-08-25 19:44:21
dse-ladak_hi_class-5th_2021-08.zim870.2 MiB2021-08-25 19:35:21
dse-ladak_hi_class-3rd_2021-08.zim190.6 MiB2021-08-25 19:32:09
dse-ladak_hi_class-2nd_2021-08.zim736.3 MiB2021-08-25 19:31:16
dse-ladak_hi_class-10th_2021-08.zim791.6 MiB2021-08-25 19:29:17
dse-ladak_hi_class-12th_2021-08.zim3.1 GiB2021-08-25 19:28:07
dse-ladak_hi_class-4th_2021-08.zim426.9 MiB2021-08-25 19:21:21
dse-ladak_hi_class-9th_2021-08.zim4.6 GiB2021-08-25 19:20:43
dse-ladak_hi_class-7th_2021-08.zim5.1 GiB2021-08-25 19:10:58
dse-ladak_hi_class-8th_2021-08.zim3.0 GiB2021-08-25 19:00:58
ubongo_sw_playlist-ubongo-kids-fan-favorites-kwa-kiswahili_2021-06.zim2.8 GiB2021-06-27 11:56:23
ubongo_sw_playlist-ubongo-kids-utu-kiswahili_2021-06.zim566.7 MiB2021-06-27 11:36:13
ubongo_sw_playlist-mziki-wa-ubongo-kids_2021-06.zim2.2 GiB2021-06-27 06:31:27
ubongo_sw_playlist-ubongo-kids-fan-favorites-kwa-kiswahili_2021-04.zim2.8 GiB2021-04-11 00:02:26
ubongo_sw_playlist-ubongo-kids-utu-kiswahili_2021-04.zim302.6 MiB2021-04-10 22:42:38
ubongo_sw_playlist-mziki-wa-ubongo-kids_2021-04.zim2.2 GiB2021-04-10 22:31:59